Regional Weather Roundup
Issued by NWS

Home | Current Version | Previous Version | Graphics & Text | Print | Product List | Glossary On
Versions: 1 2 3 4 5 6 7 8 9 10 11 12 13 14 15 16 17 18 19 20 21 22 23 24 25 26 27 28 29 30 31 32 33 34 35 36 37 38 39 40 41 42 43 44 45 46 47 48 49 50
000
ASUS45 KABQ 261901
RWRNM
WEATHER ROUNDUP FOR NEW MEXICO
NATIONAL WEATHER SERVICE ALBUQUERQUE NM
1200 PM MST MON JAN 26 2015

NOTE: "FAIR" MEANS FEW OR NO CLOUDS BELOW 12,000 FEET AGL WITH NO
       SIGNIFICANT WEATHER OR OBSTRUCTIONS TO VISION.

      THIS PRODUCT IS RELEASED AS TWO VERSIONS.  ONE VERSION NEAR
      THE TOP OF THE HOUR CONTAINING PRELIMINARY DATA FROM ALBUQUERQUE
      AND OTHER STATIONS.  A FINAL VERSION WITH ADDITIONAL DATA IS
      ISSUED ABOUT 10 MINUTES AFTER THE HOUR.

NMZ501-503-504-510>518-262000-
NORTHWEST PLATEAU/NORTHCENTRAL MOUNTAINS

CITY           SKY/WX    TMP DP  RH WIND       PRES   REMARKS
FARMINGTON     SUNNY     48  24  39 SE3       30.34F
SANTA FE       SUNNY     50  24  36 N14       30.36F
TAOS           SUNNY     48  25  40 N10       30.40F

$$
NMZ402-403-502-505>509-262000-
WESTCENTRAL MOUNTAINS/SOUTHWEST MOUNTAINS

CITY           SKY/WX    TMP DP  RH WIND       PRES   REMARKS
GALLUP         MOSUNNY   50  27  40 CALM      30.35F
SILVER CITY    MOSUNNY   57  18  21 S6        30.36F

$$
NMZ407-409-411-412-262000-
SOUTHERN DESERTS

CITY           SKY/WX    TMP DP  RH WIND       PRES   REMARKS
DEMING         MOSUNNY   58  26  29 E12       30.32F
HOLLOMAN AFB   PTSUNNY   52  30  42 NW2       30.32F
ALAMOGORDO     PTSUNNY   52  27  37 SW3       30.34F
T OR C         PTSUNNY   53  26  35 NE5       30.34F

$$
NMZ519>523-262000-
CENTRAL VALLEYS/CENTRAL HIGHLANDS

CITY           SKY/WX    TMP DP  RH WIND       PRES   REMARKS
ALBUQUERQUE    MOSUNNY   46  26  45 CALM      30.36F
DOUBLE EAGLE   MOSUNNY   48  25  40 CALM      30.37F
MORIARTY ARPT  FAIR      56  23  28 CALM      30.37F
CLINES CORNERS SUNNY     54  22  28 E13       30.37F
BELEN          FAIR      47  29  48 CALM      30.37F
SOCORRO        NOT AVBL

$$
NMZ524>526-539-540-262000-
SOUTHCENTRAL MOUNTAINS

CITY           SKY/WX    TMP DP  RH WIND       PRES   REMARKS
RUIDOSO        PTSUNNY   50  21  32 NE5       30.38F

$$
NMZ527>531-262000-
NORTHEAST HIGHLANDS/NORTHEAST PLAINS

CITY           SKY/WX    TMP DP  RH WIND       PRES   REMARKS
LAS VEGAS      SUNNY     53  21  28 SE7       30.38F
RATON          SUNNY     57  24  28 SE5       30.34F
CLAYTON        SUNNY     63  30  28 NW9       30.29F

$$
NMZ532>537-262000-
EASTCENTRAL PLAINS

CITY           SKY/WX    TMP DP  RH WIND       PRES   REMARKS
TUCUMCARI      SUNNY     57  31  37 W3        30.28F
CANNON AFB     SUNNY     59  31  35 VRB3      30.29F
CLOVIS AIRPORT SUNNY     61  34  36 NW8       30.29F

$$
NMZ028-029-538-262000-
SOUTHEAST PLAINS

CITY           SKY/WX    TMP DP  RH WIND       PRES   REMARKS
ROSWELL        MOSUNNY   56  31  38 CALM      30.30F
ARTESIA        PTSUNNY   52  32  46 CALM      30.31F
CARLSBAD       PTSUNNY   59  31  34 N7        30.28F
HOBBS          SUNNY     63  28  27 S7        30.29F


$$


USA.gov is the U.S. government's official web portal to all federal, state and local government web resources and services.